Location: Unspecified
(42.9300°N, 71.1866°W)
Time: 02:32:37
(UTC-04:00)

Genesis I - Visible Passes

Search period start: 26 July 2016 00:00
Search period end: 05 August 2016 00:00
Orbit: 498 x 536 km, 64.5° (Epoch: 25 July)

Date Brightness Start Highest point End Pass type
(mag) Time Alt. Az. Time Alt. Az. Time Alt. Az.
26 Jul 4.6 00:39:00 39° N 00:39:00 39° N 00:41:58 10° NNE visible
27 Jul 4.6 00:23:43 39° NNW 00:23:43 39° NNW 00:26:45 10° NNE visible
28 Jul 4.5 00:08:20 41° NNW 00:08:20 41° NNW 00:11:33 10° NNE visible
28 Jul 5.8 22:17:52 10° ENE 22:17:52 10° ENE 22:17:52 10° ENE visible
28 Jul 4.4 23:52:50 42° NW 23:52:50 42° NW 23:56:20 10° NNE visible
29 Jul 5.5 22:02:11 12° ENE 22:02:11 12° ENE 22:02:44 10° ENE visible
29 Jul 4.3 23:37:07 42° WNW 23:37:16 42° NW 23:41:07 10° NNE visible
30 Jul 5.1 21:46:11 16° E 21:46:11 16° E 21:47:35 10° ENE visible
30 Jul 4.5 23:21:06 34° W 23:22:04 41° NW 23:25:54 10° NNE visible
31 Jul 4.6 21:29:38 21° ESE 21:29:38 21° ESE 21:32:26 10° ENE visible
31 Jul 4.6 23:04:30 20° WSW 23:06:52 39° NW 23:10:41 10° NNE visible
01 Aug 4.5 21:11:37 12° SSE 21:14:10 21° ESE 21:17:16 10° ENE visible
01 Aug 4.7 22:47:54 10° WSW 22:51:40 38° NW 22:55:28 10° NNE visible
02 Aug 4.4 20:55:49 10° SSE 20:58:57 22° ESE 21:02:06 10° ENE visible
02 Aug 4.8 22:32:43 10° WSW 22:36:28 37° NW 22:40:14 10° NNE visible
03 Aug 4.4 20:40:32 10° SSE 20:43:43 23° ESE 20:46:56 10° ENE visible
03 Aug 4.9 22:17:32 10° WSW 22:21:16 36° NW 22:25:01 10° NNE visible
04 Aug 6.1 04:56:32 10° N 04:59:41 22° NE 05:02:49 10° E visible
04 Aug 5.0 22:02:21 10° WSW 22:06:04 34° NW 22:09:47 10° NNE visible
